Location: Gernsbach
(48.7703°N, 8.3431°E)
Time: 17:13:03
(UTC+00:00)

Daily predictions for brighter satellites

Satellite Brightness Start Highest point End
(mag) Time Altitude Azimuth Time Altitude Azimuth Time Altitude Azimuth
Meteor 1-21 4.3 20:02:06 10° S 20:07:45 80° E 20:13:24 10° NNE
Cosmos 1980 Rocket 3.7 20:05:33 10° WSW 20:10:53 42° NW 20:16:14 10° NNE
Cosmos 1674 Rocket 4.3 20:07:01 10° SSW 20:11:22 58° WNW 20:15:42 10° N
Cosmos 2278 Rocket 4.4 20:11:19 10° N 20:14:50 16° NE 20:18:21 10° ENE
Terra 3.1 20:11:23 10° ESE 20:15:22 27° ENE 20:19:21 10° N
Cosmos 1726 2.9 20:14:15 10° NNW 20:17:48 51° W 20:21:20 10° S
Lacrosse 5 2.7 20:14:47 10° WNW 20:19:33 42° SW 20:24:18 10° SSE
Cosmos 1315 Rocket 3.5 20:16:19 10° NNW 20:20:24 57° W 20:24:26 10° S
Cosmos 1844 Rocket 3.0 20:19:30 10° NNW 20:25:09 62° ENE 20:30:46 10° SE
Cosmos 1452 Rocket 3.5 20:21:11 10° SSW 20:26:25 70° ESE 20:31:42 10° NNE
SL-8 R/B 3.7 20:22:43 10° W 20:27:31 72° SSW 20:32:17 10° ESE
Cosmos 2100 Rocket 4.2 20:23:18 10° N 20:29:40 65° ENE 20:35:56 10° SSE
NOSS 3-2 (A) 4.4 20:27:32 10° WSW 20:33:11 53° NW 20:39:46 10° NE
ARIANE 5 R/B 2.8 20:29:28 10° SSE 20:33:51 67° ENE 20:38:20 10° N
NOSS 3-2 (C) 3.7 20:28:30 10° SW 20:34:12 75° NW 20:40:53 10° NE
Cosmos 1850 Rocket 4.1 20:29:25 10° NNW 20:34:46 84° WSW 20:40:01 10° SSE
Cosmos 1340 4.2 20:32:11 10° SE 20:34:56 21° E 20:37:47 10° NE
Cosmos 1908 3.3 20:33:22 10° N 20:37:15 62° ENE 20:40:58 11° SSE
FALCON 9 DEB 3.5 20:34:41 10° SW 20:37:55 40° SE 20:41:09 10° ENE
Cosmos 2263 Rocket 3.9 20:33:24 10° NW 20:38:09 28° WSW 20:42:53 10° SSW
ATLAS 3B R/B 3.4 20:33:10 10° S 20:38:39 29° ESE 20:44:16 10° NE
Cosmos 1758 4.2 20:35:34 10° NNW 20:39:24 47° W 20:43:12 10° SSW
SPOT 1/Viking Rocket 3.8 20:34:47 10° S 20:39:55 70° WSW 20:45:04 10° NNW
Geosat 4.0 20:37:26 10° SSE 20:42:24 88° ENE 20:47:29 10° NNW
Cosmos 1544 Rocket 3.9 20:39:58 10° N 20:44:23 55° ENE 20:48:22 12° SSE
CZ-2C R/B 4.0 20:40:02 10° NNE 20:44:50 80° WNW 20:49:36 10° SSW
Spot 2 Rocket 3.6 20:40:48 10° SSE 20:45:52 85° WSW 20:50:58 10° NNW
Cosmos 1707 4.0 20:43:39 10° SSW 20:47:21 43° WNW 20:51:07 10° N
Cosmos 2173 Rocket 4.1 20:41:16 10° N 20:47:41 81° E 20:54:04 10° SSE
Lacrosse 5 rocket 1.8 20:45:20 10° SSW 20:48:36 30° SE 20:51:48 10° ENE
Cosmos 1455 Rocket 3.1 20:44:47 10° N 20:49:16 84° W 20:53:43 10° S
ERS-1 Rocket 3.0 20:44:31 11° SSE 20:49:22 73° ENE 20:54:25 10° N
Cosmos 1331 Rocket 4.2 20:45:12 10° S 20:50:15 53° ESE 20:55:24 10° NNE
In-Cosmos 22 4.3 20:45:01 10° SSW 20:50:17 76° WNW 20:55:37 10° N
Cosmos 2016 Rocket 4.2 20:44:45 10° N 20:50:47 58° ENE 20:56:18 13° SSE
BREEZE-M DEB (TANK) 2.4 20:58:06 10° SSW 21:00:26 32° SE 21:04:35 10° ENE
USA 215 4.1 20:55:39 10° ENE 21:01:04 27° SE 21:06:28 10° S
Cosmos 2333 Rocket 2.8 20:56:13 10° S 21:01:29 39° ESE 21:06:45 10° NE
Cosmos 1725 Rocket 4.1 20:56:48 10° N 21:02:57 62° ENE 21:08:13 14° SSE
Cosmos 1953 2.9 21:02:27 10° NNW 21:06:27 55° W 21:10:22 10° S
Cosmos 1626 2.0 21:04:14 11° S 21:07:43 77° E 21:11:26 10° NNE
Meteor 2-10 Rocket 4.5 21:05:24 10° N 21:10:02 33° ENE 21:13:41 14° SE
SL-14 R/B 3.5 21:08:37 15° S 21:11:49 55° E 21:15:46 10° NNE
Cosmos 1844 3.8 21:06:34 10° NNW 21:12:08 75° WSW 21:16:41 16° SSE
Cosmos 2219 Rocket 2.7 21:07:38 12° S 21:12:34 40° ESE 21:17:49 10° NE
Cosmos 1867 4.4 21:10:51 10° NNW 21:16:10 47° NE 21:21:11 11° ESE
Cosmos 1802 Rocket 4.1 21:11:35 10° NNW 21:17:51 79° W 21:23:39 13° S
CENTAUR R/B 3.9 21:12:03 10° WSW 21:18:03 45° NNW 21:25:12 10° NE
Cosmos 1536 Rocket 3.8 21:15:05 16° S 21:18:32 56° E 21:22:54 10° NNE
CZ-4B DEB 4.2 21:19:02 21° SSE 21:21:01 87° ENE 21:24:12 10° NNW
DNEPR-1 R/B 3.5 21:19:20 10° NW 21:23:35 88° ENE 21:26:37 20° SE
Meteor 1-24 Rocket 4.1 21:21:07 17° SSE 21:24:54 45° E 21:30:07 10° NNE
Cosmos 1025 Rocket 3.3 21:23:00 10° SSW 21:27:22 67° W 21:31:44 10° N
Cosmos 389 Rocket 3.8 21:25:32 10° N 21:28:31 27° ENE 21:30:14 18° ESE
Cosmos 2237 Rocket 3.8 21:27:21 14° SE 21:29:25 17° E 21:32:58 10° ENE
Resurs 01 Rocket 4.3 21:31:55 10° WSW 21:33:27 12° W 21:34:59 10° WNW
Cosmos 1461 4.2 21:29:57 10° NW 21:33:38 30° WSW 21:36:05 16° SSW
Cosmos 2228 3.7 21:30:06 10° N 21:34:20 43° ENE 21:36:56 21° SE
Cosmos 2360 Rocket 2.7 21:29:18 10° SW 21:34:54 64° WNW 21:40:31 10° NNE
SL-16 R/B 4.0 21:30:00 10° WSW 21:35:08 34° NW 21:40:18 10° NNE
USA 267 3.8 21:29:56 10° E 21:36:20 60° NNE 21:42:45 10° NW
Cosmos 2322 Rocket 3.6 21:31:45 10° WSW 21:37:07 40° NW 21:42:30 10° NNE
Cosmos 1486 Rocket 4.3 21:36:31 10° NNW 21:41:42 60° ENE 21:45:12 20° SE
Cosmos 1455 3.7 21:40:37 10° NNE 21:43:51 25° ENE 21:45:44 17° ESE
ATLAS CENTAUR R/B 1.8 21:41:32 10° NW 21:45:47 59° SW 21:48:22 24° SSE
SPOT 5 4.0 21:41:32 12° SSW 21:45:56 38° W 21:50:33 10° NNW
Cosmos 968 Rocket 3.4 21:45:06 10° NNW 21:50:15 89° ENE 21:53:28 23° SSE
Cosmos 1300 3.2 21:48:32 10° NNW 21:52:16 54° W 21:54:30 22° SSW
Terra 2.7 21:49:22 16° SSW 21:52:55 43° W 21:57:29 10° NNW
COSMOS 2428 2.7 21:48:21 14° SSW 21:53:15 66° ESE 21:58:58 10° NNE
Cosmos 2322 3.7 21:49:24 10° SSW 21:55:04 87° WNW 22:00:46 10° NNE
FALCON 9 DEB 3.2 21:54:51 35° S 21:55:32 41° SE 21:58:31 10° ENE
Cosmos 1992 Rocket 4.5 21:54:03 23° SSE 21:56:51 43° ESE 22:01:48 10° NE
Uosat 12 SS-18 rocket 4.3 21:54:41 20° SSW 21:57:35 53° ESE 22:02:27 10° NE
Cosmos 405 4.2 21:56:47 10° NNW 21:59:54 32° W 22:01:49 19° SSW
Cosmos 2278 Rocket 2.5 21:54:29 10° NNW 22:00:08 62° ENE 22:04:01 20° SE
ATLAS CENTAUR R/B 4.1 21:59:32 20° SE 22:01:49 25° ESE 22:09:56 10° ENE
Cosmos 2058 Rocket 4.0 22:00:53 10° N 22:05:02 37° ENE 22:07:18 22° SE
Cosmos 1844 Rocket 4.3 22:04:07 10° NW 22:08:36 24° WSW 22:12:33 12° SSW
Cosmos 1340 4.2 22:06:53 10° SW 22:10:18 33° WNW 22:13:46 10° N
H-2A R/B 4.5 22:08:41 10° N 22:12:35 43° WNW 22:16:09 12° SW
Cosmos 1726 Rocket 3.7 22:08:13 10° N 22:12:42 69° ENE 22:14:53 29° SSE
Cosmos 2233 Rocket 4.2 22:06:56 10° NNW 22:13:01 64° W 22:17:17 20° S
Cosmos 1346 Rocket 2.7 22:11:16 29° S 22:13:14 81° E 22:17:17 10° NNE
GEOS 3 Rocket 3.7 22:11:18 24° SE 22:14:42 79° SW 22:20:04 10° NW
FALCON 9 DEB 3.9 22:11:24 10° W 22:14:46 54° NNW 22:18:07 10° ENE
FALCON 9 DEB 2.7 22:13:00 10° WSW 22:16:06 77° SSE 22:19:11 10° ENE
Cosmos 1447 Rocket 4.5 22:15:10 20° S 22:19:42 86° W 22:25:56 10° N
FALCON 9 DEB 2.7 22:18:01 21° SW 22:19:54 67° SSE 22:23:01 10° ENE
NOSS 0 Rocket 4.1 22:16:43 23° S 22:20:34 56° ESE 22:26:40 10° NE
SL-4 R/B 3.3 22:22:17 21° ESE 22:22:17 21° ESE 22:24:15 10° E
Meteor 2-5 Rocket 4.4 22:18:54 12° SSW 22:23:54 51° WNW 22:29:23 10° N
FALCON 9 DEB 2.7 22:22:26 10° WSW 22:25:33 85° SSE 22:28:40 10° ENE
Cosmos 1606 Rocket 3.7 22:22:38 10° NNW 22:27:06 69° W 22:29:16 29° S
Lacrosse 5 rocket 2.0 22:24:02 10° WSW 22:27:34 47° NNW 22:31:03 10° NE
ATLAS 3B R/B 2.9 22:22:15 10° SW 22:28:47 71° NW 22:35:37 10° NE
SJ 16-02 3.4 22:27:33 10° N 22:30:52 20° NE 22:34:09 10° ESE
Cosmos 1892 Rocket 3.6 22:29:33 32° S 22:31:30 69° E 22:35:57 10° NNE
ALOS 2 2.8 22:32:40 30° SE 22:34:44 65° ENE 22:39:06 10° N
Cosmos 1980 3.8 22:36:00 26° S 22:39:07 62° ESE 22:44:44 10° NNE
Meteor 2-1 Rocket 4.2 22:33:40 10° N 22:39:12 73° ENE 22:42:13 28° SSE
Cosmos 1441 Rocket 3.9 22:38:21 33° SE 22:39:23 41° E 22:43:01 10° NNE
Cosmos 1943 Rocket 3.7 22:34:45 10° NNW 22:39:37 30° NE 22:44:27 10° ESE
Cosmos 1703 3.8 22:39:40 34° SE 22:40:51 46° E 22:44:40 10° NNE
Cosmos 1503 Rocket 4.0 22:35:43 10° NNW 22:41:06 78° WSW 22:43:52 30° SSE
Spot 4 4.0 22:39:08 30° S 22:41:28 66° WSW 22:46:14 10° NNW
USA 215 3.2 22:38:09 10° ENE 22:44:43 81° SE 22:51:16 10° SW
Cosmos 2333 Rocket 3.4 22:40:18 10° WSW 22:45:44 42° NW 22:51:11 10° NNE
SAR-Lupe-2 4.3 22:46:25 10° NNE 22:49:47 37° E 22:50:27 33° SE
Cosmos 1328 4.5 22:52:30 32° SE 22:53:34 40° E 22:57:13 10° NNE
Cosmos 2219 Rocket 3.4 22:51:11 10° WSW 22:56:32 40° NW 23:01:53 10° NNE
Cosmos 1464 Rocket 4.1 22:52:01 10° NNW 22:58:24 77° W 23:02:03 27° S
Cosmos 1867 4.3 22:54:39 10° NW 22:59:42 38° WSW 23:01:49 28° SSW
Cosmos 1607 4.0 22:55:11 10° NW 23:01:35 68° WSW 23:05:04 27° SSE
Cosmos 1626 Rocket 4.0 22:59:58 33° SSE 23:01:36 50° E 23:05:55 10° NNE
Thor Agena Rocket 4.2 22:57:24 10° NNE 23:02:26 43° E 23:04:38 28° SSE
Cosmos 389 Rocket 4.3 23:00:27 10° NW 23:03:01 20° W 23:04:01 18° WSW
Cosmos 2346 Rocket 4.4 23:00:49 28° S 23:04:17 86° E 23:10:31 10° N
COBE Rocket 4.3 23:04:31 29° SSW 23:06:52 55° W 23:11:45 10° NNW
SL-16 R/B 3.0 23:06:17 27° SSE 23:08:30 37° ESE 23:13:40 10° NE
Cosmos 1602 Rocket 4.3 23:06:53 30° SE 23:08:32 43° E 23:12:47 10° NNE
Cosmos 2237 Rocket 2.2 23:09:08 23° SSW 23:12:45 83° WNW 23:18:25 10° NNE
MTI 3.5 23:10:48 10° NNE 23:13:51 80° E 23:14:12 66° S
Meteor 1-4 Rocket 2.4 23:12:27 10° N 23:15:57 79° ENE 23:16:45 50° SSE
USA 267 3.3 23:14:47 21° SE 23:19:21 63° SW 23:25:52 10° WNW
Cosmos 1455 3.6 23:16:08 10° NNW 23:19:24 27° W 23:20:36 23° WSW
Cosmos 1816 Rocket 4.4 23:17:16 29° S 23:20:37 83° E 23:26:47 10° N
Cosmos 2369 Rocket 3.6 23:16:56 10° NNW 23:22:10 34° NE 23:27:21 10° ESE
Cosmos 1184 Rocket 4.0 23:22:45 28° WSW 23:23:44 34° WNW 23:26:46 10° N
Okean 1-7 Rocket 4.1 23:27:36 29° SW 23:29:40 54° WNW 23:34:03 10° N
Cosmos 1777 Rocket 4.0 23:25:41 10° NNW 23:30:58 70° WSW 23:33:25 32° S
FALCON 9 DEB 3.8 23:28:11 10° W 23:31:14 49° NNW 23:34:19 10° ENE
Cosmos-2242 3.7 23:26:59 10° N 23:31:16 48° ENE 23:33:23 26° SE
Cosmos 2034 Rocket 4.2 23:26:21 10° NNW 23:32:26 61° W 23:35:44 28° SSW
Cosmos 1408 4.3 23:37:17 20° ESE 23:38:25 23° E 23:41:22 10° NE
Cosmos 2297 3.6 23:37:31 10° NNW 23:43:12 86° WSW 23:46:30 26° SSE
Cosmos 1812 Rocket 3.5 23:39:16 10° NNW 23:43:38 78° W 23:45:17 37° S
Cosmos 2278 Rocket 3.6 23:39:18 10° NW 23:43:46 24° WSW 23:45:51 20° SW
Meteor 1-27 4.3 23:41:35 10° N 23:47:10 71° ENE 23:50:26 26° SSE
Meteor 1-11 4.2 23:44:20 30° S 23:47:12 84° E 23:52:49 10° NNE
Cosmos 724 4.3 23:41:08 10° NW 23:47:18 71° WSW 23:50:57 25° SSE
FALCON 9 DEB 4.4 23:48:57 10° W 23:51:53 38° N 23:54:49 10° ENE
FALCON 9 DEB 4.3 23:52:46 10° W 23:55:44 40° N 23:58:43 10° ENE
